Regional Weather Roundup
Issued by NWS

Home | Current Version | Previous Version | Text Only | Print | Product List | Glossary On
Versions: 1 2 3 4 5 6 7 8 9 10 11 12 13 14 15 16 17 18 19 20 21 22 23 24 25 26 27 28 29 30 31 32 33 34 35 36 37 38 39 40 41 42 43 44 45 46 47 48 49 50
000
ASUS43 KTOP 261008
RWRKS

WEATHER ROUNDUP FOR KANSAS
NATIONAL WEATHER SERVICE GOODLAND KS
500 AM CDT THU APR 26 2018

NOTE:  "FAIR" INDICATES FEW OR NO CLOUDS BELOW 12,000 FEET WITH NO
SIGNIFICANT WEATHER AND/OR OBSTRUCTIONS TO VISIBILITY.

KSZ001>006-013>018-027>032-041>047-261100-
NORTHWEST KANSAS

CITY           SKY/WX    TMP DP  RH WIND       PRES   REMARKS
GOODLAND       CLEAR     42  32  67 SW14      29.91F
HAYS           CLEAR     35  35 100 CALM      29.99F
HILL CITY      CLEAR     36  35  96 SW3       29.97F
RUSSELL        CLEAR     35  35 100 SW8       29.97F
$$

KSZ061>065-074>080-084>089-261100-
SOUTHWEST KANSAS

CITY           SKY/WX    TMP DP  RH WIND       PRES   REMARKS
DODGE CITY     CLEAR     36  32  85 S6        29.98F
ELKHART        CLEAR     41  36  82 S13       29.97F
GARDEN CITY    CLEAR     35  32  88 W5        29.97F
GREAT BEND     CLEAR     33  32  96 S6        30.00F
LIBERAL        CLEAR     37  34  89 SW8       29.99F
PRATT          CLEAR     37  35  94 SW3       30.01F
$$

KSZ066>073-081>083-090>101-261100-
SOUTHEAST KANSAS

CITY           SKY/WX    TMP DP  RH WIND       PRES   REMARKS
CHANUTE        CLOUDY    48  46  93 N5        29.99F
COFFEYVILLE    CLOUDY    50  48  93 NE5       29.98F
HUTCHINSON     FOG       34  34 100 NW5       30.01F VSB 1/4
MEDICINE LODGE   N/A     34  33  96 N3        30.00F
NEWTON         FOG       36  36 100 W5        30.01F VSB 3/4
PARSONS        CLOUDY    50  48  93 NE6       29.99F
WICHITA INTL   PTCLDY    36  36 100 CALM      30.01F FOG
WICHITA JABRA  CLEAR     38  38 100 NW3       30.01S FOG
WICHITA MCCONL CLEAR     40  40  99 CALM      30.01S FOG
WINFIELD       CLEAR     40  40 100 CALM      30.03R
$$

KSZ007>012-019>026-033>040-048>060-102>105-261100-
NORTHEAST KANSAS

CITY           SKY/WX    TMP DP  RH WIND       PRES   REMARKS
CONCORDIA      CLOUDY    39  37  92 W7        30.00R
EMPORIA        CLOUDY    39  38  96 W6        30.00R
LAWRENCE       PTCLDY    35  35 100 NW6       29.99S FOG
MANHATTAN      FOG       36  36 100 SW3       30.00S VSB 1/4
MARYSVILLE     CLEAR     36  36 100 CALM      29.99S FOG
OLATHE IND     FOG       40  40 100 NW6       29.99S VSB 1/4
OLATHE EXE     CLEAR     40  40 100 NW6       29.98S
SALINA         CLOUDY    36  36 100 SW3       30.02R
TOPEKA BILLARD PTCLDY    40  40 100 CALM      29.99F
TOPEKA FORBES  CLEAR     38  37  97 CALM      29.98F FOG
$$



USA.gov is the U.S. government's official web portal to all federal, state and local government web resources and services.